Погода Кировский

Погода Кировский : погода сейчас, прогноз погоды и архив. Всё, что Вы хотите узнать о погоде Кировский!

Хотите узнать прогноз погоды Кировский? Тогда Вам сюда: Погода Кировский

Поиск расширенной информации на нашем сайте:

Другие новости

Новости СМИ2

Главная страница сайта

Новости сайта

02.10.2013

Напоминаем, что на нашем новом сайте вы можете получить высокодетализированные прогнозы погоды по пунктам России, СНГ и мира (включающие важные для авиации метеовеличины, такие как направление и скорость ветра, видимость, явления погоды, количество и форма облачности, нижняя и верхняя граница облачности), а также ознакомиться с разнообразными материалами по авиационной метеорологии и подборкой полезных ссылок на эту тему.

Сайт Метеоцентр.Азия посвящён разработке технологий оптимизации авиаметеорологического обслуживания, включая проектирование и перспективное создание нескольких автоматизированных авиаметеорологических систем:
- система выпуска высокодетальных прогностических карт явлений погоды для нижнего воздушного пространства по России и ближнему зарубежью;
- система верификации прогнозов TAF (выпускаемых синоптиками официальных АМСГ РФ и ближнего зарубежья) и AUTOTAF (выпускаемых сайтом Метеоцентр.Азия) - выявление ошибок, онлайн-сопоставление с фактической погодой METAR, автоматическое внесение коррективов в прогнозы при резком отклонении фактической погоды от прогноза, подсчёт оправдываемости прогнозов по элементам и в целом;
- система обработки, анализа и отображения авиаметеорологической информации для применения провайдерами метеорологической информации.

Рекомендуем: http://seoxo.ru/ особенности продвижения сайта визитки.

Погода Кировский - сегодня

Время (UTC), дата Ветер
(°,м/с) 
Видим.   Явления Облачность Т
(°С)
Тd
(°С)
f(%) Тe
(°С)
Pmin
(гПа)
dP
(гПа)
Po
(мм)
O2
(г/м3)
Тmin Tmax R s Состояние
почвы
12 18.02.17 тихо ()   20000 м    ясно 
-17 -22.3 63 -17  1021.9  1.2  756  327           
15 18.02.17 220 (ЮЗ) 20000 м    ясно 
-21.6 -24.1 80 -22  1022.2  0.1  757  333           
18 18.02.17 тихо ()   20000 м    ясно 
-23.1 -25.6 80 -23  1022.3  757  335           
21 18.02.17 тихо ()   20000 м    ясно 
-25.3 -28.1 77 -25  1022.3  -0.1  756  338  -25.7      28  равномерный
сухой снег
100% 
00 19.02.17 тихо ()   20000 м    1/0 верхняя 
[Ci fib]
-20.3 -24.2 71 -20  1021.8  -0.3  756  331  -27.2         
03 19.02.17 190 (Ю) 20000 м    10/0 верхняя 
[Cs]
-12.2 -23.9 37 -12  1019.4  -1.9  755  320           
06 19.02.17 290 (З) 20000 м    10/0 верхняя 
[Cs]
-9.9 -23.1 33 -10  1015.9  -3.3  752  316           
09 19.02.17 040 (СВ) 20000 м    10/0 средняя, верхняя 
[Ac trans|Cs]
-13.2 -20.9 52 -13  1014.1  -1.9  751  319    -9.5       
12 19.02.17 030 (СВ) 20000 м    8/0 средняя, верхняя 
[Ac trans|Ci fib]
-15.7 -22.5 56 -16  1013.2  -1  750  322           
15 19.02.17 050 (СВ) 20000 м    10/0 средняя 
[Ac As]
-15.1 -21.9 56 -15  1011.9  -1.2  749  321           
18 19.02.17 240 (ЮЗ) 20000 м    10/0 средняя 
[Ac As]
-14 -19.7 62 -14  1011.4  -0.4  749  320           
21 19.02.17 030 (СВ) 20000 м    10/0 средняя 
[Ac und]
-16.2 -21.5 64 -16  1012.2  0.7  749  323  -16.2      28  равномерный
сухой снег
100% 
00 20.02.17 350 (С) 20000 м    10/0 верхняя 
[Ci fib]
-15.9 -23.3 53 -18  1014.6  2.4  751  323  -16.9         
03 20.02.17 300 (СЗ) 20000 м    10/0 верхняя 
[Ci fib]
-12.3 -20.3 51 -16  1015.4  752  319           
06 20.02.17 320 (СЗ) 20000 м    10/0 верхняя 
[Ci fib]
-10.9 -19.5 49 -16  1016.4  753  317           
09 20.02.17 340 (С) 20000 м    3/0 верхняя 
[Ci fib]
-12.7 -20.7 51 -15  1018.7  2.2  754  320    -10.8       
12 20.02.17 250 (З) 20000 м    ясно 
-18.3 -22.4 70 -19  1021.9  2.9  756  328           
15 20.02.17 230 (ЮЗ) 20000 м    ясно 
-21.4 -24.1 79 -22  1023.3  1.2  757  333           
18 20.02.17 270 (З) 20000 м    ясно 
-18.4 -22.5 70 -21  1024.8  1.6  759  329           
21 20.02.17 250 (З) 20000 м    1/0 средняя 
[Ac trans]
-18.5 -22.4 71 -21  1026.3  1.5  760  330  -22.2      28  равномерный
сухой снег
100% 
00 21.02.17 210 (ЮЗ) 20000 м    ясно 
-13.8 -20.3 58 -14  1028.4  2.3  761  325           
03 21.02.17 290 (З) 20000 м    ясно 
-8 -17.4 47 -11  1028.3  0.2  762  318           
06 21.02.17 260 (З) 20000 м    ясно 
-5.6 -14.3 50 -8  1027.6  -0.5  761  314           
09 21.02.17 230 (ЮЗ) 20000 м    3/0 верхняя 
[Ci fib]
-7.5 -15 55 -7  1026.9  -0.8  761  316    -4.6       
12 21.02.17 170 (Ю) 20000 м    3/0 верхняя 
[Ci fib]
-13.5 -16.5 78 -13  1026.8  -0.3  760  324           
Время (UTC), дата Ветер
(°,м/с) 
Видим.   Явления Облачность Т
(°С)
Тd
(°С)
f(%) Тe
(°С)
Pmin
(гПа)
dP
(гПа)
Po
(мм)
O2
(г/м3)
Тmin Tmax R s Состояние
почвы

Для получения пояснительной информации подведите курсор к названию столбца.

ПОГОДА Кировский - архив

Всё, что Вы хотите узнать о погоде Кировский - удобно и подробно!

Выберите нужную дату (начиная с 1 января 2015* года) и нажмите кнопку "Найти".
Будут отображены архивные сводки погоды по пункту Кировский, начиная с указанной даты.


Отображать данные в формате CSV (для использования в таблицах Excel)


Внимание! Наш архив погоды предназначен исключительно для личного некоммерческого использования в познавательных целях. Если Вам необходимы официальные справки о состоянии погоды (для производственных, юридических, коммерческих и т.п. целей), обращайтесь в органы Росгидромета.

*Примечание: данная дата относится к архиву по метеостанциям СССР (Россия, СНГ, Балтия).
Архив по метеостанциям Зарубежной Европы и Азии (кроме Китая) хранится 10 дней, по другим регионам земного шара (Китай, Африка, Америка, Австралия, Океания) - 1 день.

Кировский - район местоположения метеостанции


Название, широта, долгота, высота метеостанции:
Кировский 45.1°ш. 133.5°д. 98 м над ур. моря [Российская Федерация]

Дополнительная информация

В oтличие oт бoльшинства пoгoдных сайтoв мы публикуем пoдрoбную метеoинфoрмацию в детальнoм прoфессиoнальнoм фoрмате.

Характеристики температуры и влажнoсти вoздуха измеряются на высoте 2 м в тени вдали oт зданий и деревьев.
Скoрoсть ветра измеряется на высoте 10 м (на урoвне рoста челoвека скoрoсть ветра ниже в 1.5-2 раза). Если метеoстанция нахoдится в гoрoде или в лесу, тo скoрoсть ветра занижена на 2-4 м/с пo сравнению с oткрытым местoм. Скoрoсть ветра над акватoриями крупных рек и oзёр, а также на вершинах хoлмoв на 2-5 м/с выше, чем в oбычных услoвиях.
Атмoсфернoе давление в разных тoчках местнoсти мoжет значительнo oтличаться oт давления на метеoстанции, в зависимoсти oт услoвий рельефа (при пoдъёме на 10 м давление пoнижается примернo на 1 мм рт.ст.).